| time (UTC) | temp C | wind direction | speed KPH | gust KPH | rain 1hr cm | rain 24hr cm | rain mn cm | humidity % | barometer mb |
| 20260903041522 | 10 | 115 | 0.0 | 0.0 | 0.00 | 0.00 | 0.00 | 93 | 1020.8 |
| 20260903040036 | 10 | 115 | 0.0 | 0.0 | 0.00 | 0.00 | 0.00 | 93 | 1020.9 |
| 20260903034607 | 10 | 115 | 0.0 | 0.0 | 0.00 | 0.00 | 0.00 | 92 | 1020.8 |
| 20260903033017 | 11 | 115 | 0.0 | 0.0 | 0.00 | 0.00 | 0.00 | 92 | 1020.9 |
| 20260903031539 | 11 | 115 | 0.0 | 0.0 | 0.00 | 0.00 | 0.00 | 92 | 1020.8 |
| 20260903030058 | 11 | 115 | 0.0 | 0.0 | 0.00 | 0.00 | 0.00 | 91 | 1020.9 |
| 20260903024517 | 11 | 115 | 0.0 | 0.0 | 0.00 | 0.00 | 0.00 | 92 | 1020.9 |
| 20260903023054 | 11 | 115 | 0.0 | 0.0 | 0.00 | 0.00 | 0.00 | 92 | 1020.9 |
| 20260903021520 | 11 | 115 | 0.0 | 0.0 | 0.00 | 0.00 | 0.00 | 91 | 1020.9 |
| 20260903020058 | 11 | 115 | 0.0 | 0.0 | 0.00 | 0.00 | 0.00 | 90 | 1020.9 |
| 20260903014520 | 11 | 115 | 0.0 | 0.0 | 0.00 | 0.00 | 0.00 | 90 | 1020.9 |
| 20260903013038 | 11 | 115 | 0.0 | 0.0 | 0.00 | 0.00 | 0.00 | 88 | 1020.8 |
| 20260903011556 | 12 | 115 | 0.0 | 0.0 | 0.00 | 0.00 | 0.00 | 87 | 1020.8 |
| 20260903010020 | 12 | 115 | 0.0 | 0.0 | 0.00 | 0.00 | 0.00 | 86 | 1020.7 |
| 20260903004546 | 13 | 115 | 0.0 | 0.0 | 0.00 | 0.00 | 0.00 | 85 | 1020.7 |
| 20260903003105 | 13 | 115 | 0.0 | 0.0 | 0.00 | 0.00 | 0.00 | 83 | 1020.7 |
| 20260903001520 | 14 | 115 | 0.0 | 0.0 | 0.00 | 0.00 | 0.00 | 81 | 1020.6 |
| 20260903000005 | 14 | 115 | 0.0 | 0.0 | 0.00 | 0.00 | 0.00 | 81 | 1020.7 |
| 20260902234529 | 13 | 115 | 0.0 | 0.0 | 0.00 | 0.00 | 0.00 | 83 | 1020.7 |
| 20260902233049 | 13 | 115 | 0.0 | 0.0 | 0.00 | 0.00 | 0.00 | 84 | 1020.6 |
| 20260902231511 | 13 | 115 | 0.0 | 0.0 | 0.00 | 0.00 | 0.00 | 84 | 1020.6 |
| 20260902230033 | 13 | 115 | 0.0 | 0.0 | 0.00 | 0.00 | 0.00 | 83 | 1020.7 |
| 20260902224654 | 13 | 115 | 0.0 | 0.0 | 0.00 | 0.00 | 0.00 | 82 | 1020.7 |
| 20260902223022 | 13 | 115 | 0.0 | 0.0 | 0.00 | 0.00 | 0.00 | 81 | 1020.6 |
| 20260902221533 | 14 | 115 | 0.0 | 0.0 | 0.00 | 0.00 | 0.00 | 79 | 1020.6 |
| 20260902220054 | 15 | 115 | 0.0 | 0.0 | 0.00 | 0.00 | 0.00 | 78 | 1020.4 |
| 20260902214520 | 15 | 115 | 0.0 | 0.0 | 0.00 | 0.00 | 0.00 | 77 | 1020.3 |
| 20260902213025 | 15 | 115 | 0.0 | 0.0 | 0.00 | 0.00 | 0.00 | 75 | 1020.2 |
| 20260902211549 | 16 | 115 | 0.0 | 0.0 | 0.00 | 0.00 | 0.00 | 73 | 1020.0 |
| 20260902210057 | 16 | 115 | 0.0 | 0.0 | 0.00 | 0.00 | 0.00 | 72 | 1020.0 |
| 20260902204516 | 16 | 115 | 0.0 | 0.0 | 0.00 | 0.00 | 0.00 | 71 | 1019.9 |
| 20260902203042 | 16 | 115 | 0.0 | 0.0 | 0.00 | 0.00 | 0.00 | 70 | 1019.9 |
| 20260902201611 | 16 | 115 | 0.0 | 0.0 | 0.00 | 0.00 | 0.00 | 69 | 1019.8 |
| 20260902200013 | 17 | 115 | 0.0 | 0.0 | 0.00 | 0.00 | 0.00 | 66 | 1019.7 |
| 20260902194537 | 18 | 115 | 0.0 | 0.0 | 0.00 | 0.00 | 0.00 | 63 | 1019.7 |
| 20260902193058 | 19 | 115 | 0.0 | 4.8 | 0.00 | 0.00 | 0.00 | 58 | 1019.7 |
| 20260902191528 | 20 | 115 | 0.0 | 4.8 | 0.00 | 0.00 | 0.00 | 51 | 1019.6 |
| 20260902190011 | 21 | 115 | 0.0 | 4.8 | 0.00 | 0.00 | 0.00 | 48 | 1019.4 |
| 20260902184540 | 21 | 115 | 0.0 | 3.2 | 0.00 | 0.00 | 0.00 | 48 | 1019.5 |
| 20260902183053 | 21 | 115 | 0.0 | 1.6 | 0.00 | 0.00 | 0.00 | 47 | 1019.2 |
| 20260902181510 | 21 | 115 | 0.0 | 4.8 | 0.00 | 0.00 | 0.00 | 47 | 1019.1 |
| 20260902180032 | 21 | 115 | 0.0 | 3.2 | 0.00 | 0.00 | 0.00 | 46 | 1018.8 |
| 20260902174551 | 21 | 115 | 0.0 | 4.8 | 0.00 | 0.00 | 0.00 | 45 | 1018.7 |
| 20260902173002 | 22 | 115 | 0.0 | 0.0 | 0.00 | 0.00 | 0.00 | 43 | 1018.6 |
| 20260902171544 | 22 | 115 | 0.0 | 8.0 | 0.00 | 0.00 | 0.00 | 42 | 1018.5 |
| 20260902170017 | 23 | 115 | 0.0 | 8.0 | 0.00 | 0.00 | 0.00 | 40 | 1018.4 |
| 20260902164553 | 23 | 115 | 0.0 | 8.0 | 0.00 | 0.00 | 0.00 | 40 | 1018.4 |
| 20260902163000 | 23 | 115 | 0.0 | 6.4 | 0.00 | 0.00 | 0.00 | 40 | 1018.4 |
| 20260902161526 | 24 | 115 | 1.6 | 6.4 | 0.00 | 0.00 | 0.00 | 39 | 1018.2 |
| 20260902160054 | 24 | 115 | 0.0 | 9.7 | 0.00 | 0.00 | 0.00 | 37 | 1018.2 |
| 20260902154515 | 25 | 115 | 1.6 | 11.3 | 0.00 | 0.00 | 0.00 | 37 | 1018.1 |
| 20260902153040 | 25 | 115 | 3.2 | 9.7 | 0.00 | 0.00 | 0.00 | 37 | 1018.1 |
| 20260902151552 | 25 | 115 | 1.6 | 8.0 | 0.00 | 0.00 | 0.00 | 40 | 1018.2 |
| 20260902150014 | 25 | 115 | 3.2 | 14.5 | 0.00 | 0.00 | 0.00 | 40 | 1018.1 |
| 20260902144520 | 26 | 115 | 0.0 | 12.9 | 0.00 | 0.00 | 0.00 | 41 | 1018.2 |
| 20260902143040 | 26 | 115 | 0.0 | 9.7 | 0.00 | 0.00 | 0.00 | 41 | 1018.2 |
| 20260902141603 | 26 | 115 | 0.0 | 8.0 | 0.00 | 0.00 | 0.00 | 42 | 1018.4 |
| 20260902140011 | 26 | 115 | 4.8 | 14.5 | 0.00 | 0.00 | 0.00 | 43 | 1018.6 |
| 20260902134534 | 25 | 115 | 0.0 | 9.7 | 0.00 | 0.00 | 0.00 | 46 | 1018.6 |
| 20260902133009 | 25 | 115 | 0.0 | 9.7 | 0.00 | 0.00 | 0.00 | 45 | 1018.6 |
| 20260902131531 | 24 | 115 | 0.0 | 11.3 | 0.00 | 0.00 | 0.00 | 47 | 1018.8 |
| 20260902130050 | 25 | 115 | 0.0 | 6.4 | 0.00 | 0.00 | 0.00 | 43 | 1018.9 |
| 20260902124502 | 24 | 115 | 0.0 | 11.3 | 0.00 | 0.00 | 0.00 | 48 | 1019.1 |
| 20260902123024 | 23 | 115 | 1.6 | 11.3 | 0.00 | 0.00 | 0.00 | 49 | 1019.3 |
| 20260902121603 | 23 | 115 | 0.0 | 12.9 | 0.00 | 0.00 | 0.00 | 50 | 1019.3 |
| 20260902120004 | 23 | 115 | 4.8 | 12.9 | 0.00 | 0.00 | 0.00 | 50 | 1019.3 |
| 20260902114534 | 22 | 115 | 1.6 | 11.3 | 0.00 | 0.00 | 0.00 | 51 | 1019.5 |
| 20260902113102 | 22 | 115 | 3.2 | 11.3 | 0.00 | 0.00 | 0.00 | 49 | 1019.5 |
| 20260902111509 | 23 | 115 | 0.0 | 1.6 | 0.00 | 0.00 | 0.00 | 47 | 1019.6 |
| 20260902110027 | 23 | 115 | 0.0 | 9.7 | 0.00 | 0.00 | 0.00 | 48 | 1019.7 |
| 20260902104600 | 22 | 115 | 0.0 | 9.7 | 0.00 | 0.00 | 0.00 | 50 | 1019.7 |
| 20260902103005 | 24 | 115 | 0.0 | 3.2 | 0.00 | 0.00 | 0.00 | 48 | 1019.8 |
| 20260902101533 | 22 | 115 | 0.0 | 1.6 | 0.00 | 0.00 | 0.00 | 53 | 1019.9 |
| 20260902100044 | 22 | 115 | 0.0 | 0.0 | 0.00 | 0.00 | 0.00 | 53 | 1020.1 |
| 20260902094602 | 22 | 115 | 0.0 | 0.0 | 0.00 | 0.00 | 0.00 | 54 | 1019.9 |
| 20260902093025 | 22 | 115 | 0.0 | 6.4 | 0.00 | 0.00 | 0.00 | 56 | 1020.2 |
| 20260902091519 | 22 | 115 | 0.0 | 1.6 | 0.00 | 0.00 | 0.00 | 59 | 1020.3 |
| 20260902090035 | 21 | 115 | 0.0 | 0.0 | 0.00 | 0.00 | 0.00 | 62 | 1020.3 |
| 20260902084601 | 21 | 115 | 0.0 | 6.4 | 0.00 | 0.00 | 0.00 | 61 | 1020.2 |
| 20260902083019 | 20 | 115 | 0.0 | 6.4 | 0.00 | 0.00 | 0.00 | 62 | 1020.4 |
| 20260902081643 | 20 | 115 | 0.0 | 1.6 | 0.00 | 0.00 | 0.00 | 63 | 1020.4 |
| 20260902080014 | 19 | 115 | 0.0 | 0.0 | 0.00 | 0.00 | 0.00 | 67 | 1020.5 |
| 20260902074537 | 18 | 115 | 0.0 | 0.0 | 0.00 | 0.00 | 0.00 | 69 | 1020.6 |
| 20260902073002 | 18 | 115 | 0.0 | 0.0 | 0.00 | 0.00 | 0.00 | 71 | 1020.5 |
| 20260902071519 | 17 | 115 | 0.0 | 0.0 | 0.00 | 0.00 | 0.00 | 74 | 1020.5 |
| 20260902070032 | 16 | 115 | 0.0 | 0.0 | 0.00 | 0.00 | 0.00 | 80 | 1020.5 |
| 20260902064503 | 15 | 115 | 0.0 | 0.0 | 0.00 | 0.00 | 0.00 | 84 | 1020.5 |
| 20260902063021 | 13 | 115 | 0.0 | 0.0 | 0.00 | 0.00 | 0.00 | 90 | 1020.6 |
| 20260902061545 | 12 | 115 | 0.0 | 0.0 | 0.00 | 0.00 | 0.00 | 97 | 1020.7 |
| 20260902060104 | 10 | 115 | 0.0 | 0.0 | 0.00 | 0.00 | 0.00 | 97 | 1020.6 |
| 20260902054536 | 8 | 115 | 0.0 | 0.0 | 0.00 | 0.00 | 0.00 | 97 | 1020.5 |
| 20260902053103 | 8 | 115 | 0.0 | 0.0 | 0.00 | 0.00 | 0.00 | 97 | 1020.5 |
| 20260902051504 | 7 | 115 | 0.0 | 0.0 | 0.00 | 0.00 | 0.00 | 96 | 1020.4 |
| 20260902050016 | 7 | 115 | 0.0 | 0.0 | 0.00 | 0.00 | 0.00 | 96 | 1020.4 |
| 20260902044548 | 7 | 115 | 0.0 | 0.0 | 0.00 | 0.00 | 0.00 | 96 | 1020.3 |
| 20260902043120 | 7 | 115 | 0.0 | 0.0 | 0.00 | 0.00 | 0.00 | 96 | 1020.2 |